Location: Charbonni�res
(45.9952°N, 2.9982°E)
Time: 17:40:19
(UTC+00:00)

Meteor 1-31 Rocket - Pass Details

Date: 29 November 2020
Orbit: 520 x 546 km, 97.6° (Epoch: 23 January)

Event Time Altitude Azimuth Distance (km) Brightness Sun altitude
Rises 05:35:58 0° 1° (N) 2,692 6.2 -15.4°
Reaches altitude 10° 05:38:21 10° 348° (NNW) 1,791 5.2 -15.0°
Enters shadow 05:40:28 22° 318° (NW) 1,212 4.1 -14.6°
